Location: Unspecified
(41.1637°N, 24.2901°E)
Time: 21:58:43
(UTC+02:00)

ISS - Pass Details

Date: 15 September 2019
Orbit: 411 x 421 km, 51.6° (Epoch: 19 September)

Event Time Altitude Azimuth Distance (km) Brightness Sun altitude
Exits shadow 05:32:28 - 273° (W) 1,642 -1.4 -6.5°
Reaches altitude 10° 05:33:03 10° 266° (W) 1,487 -1.6 -6.4°
Maximum altitude 05:35:02 15° 229° (SW) 1,223 -1.9 -6.0°
Drops below altitude 10° 05:37:00 10° 193° (SSW) 1,484 -1.2 -5.6°
Sets 05:39:44 0° 169° (SSE) 2,344 0.1 -5.1°
